TimeCST,TemperatureF,Dew PointF,Humidity,Sea Level PressureIn,VisibilityMPH,Wind Direction,Wind SpeedMPH,Gust SpeedMPH,PrecipitationIn,Events,Conditions,WindDirDegrees,DateUTC
12:12 AM,32.0,24.6,74,30.09,10.0,Calm,Calm,-,N/A,,Scattered Clouds,0,2012-11-29 06:12:00
12:32 AM,32.0,24.8,75,30.09,10.0,Calm,Calm,-,N/A,,Scattered Clouds,0,2012-11-29 06:32:00
12:52 AM,32.0,24.6,74,30.07,10.0,Calm,Calm,-,N/A,,Clear,0,2012-11-29 06:52:00
1:12 AM,32.0,24.6,74,30.07,10.0,Calm,Calm,-,N/A,,Clear,0,2012-11-29 07:12:00
1:32 AM,31.1,24.4,76,30.07,10.0,Calm,Calm,-,N/A,,Clear,0,2012-11-29 07:32:00
1:52 AM,30.7,24.4,77,30.07,10.0,Calm,Calm,-,N/A,,Clear,0,2012-11-29 07:52:00
2:12 AM,28.9,23.5,80,30.07,10.0,Calm,Calm,-,N/A,,Clear,0,2012-11-29 08:12:00
2:32 AM,28.0,23.5,83,30.07,10.0,Calm,Calm,-,N/A,,Clear,0,2012-11-29 08:32:00
2:52 AM,27.3,23.4,85,30.07,7.0,Calm,Calm,-,N/A,,Clear,0,2012-11-29 08:52:00
3:12 AM,27.0,23.0,85,30.07,7.0,Calm,Calm,-,N/A,,Clear,0,2012-11-29 09:12:00
3:32 AM,26.8,23.0,86,30.07,7.0,Calm,Calm,-,N/A,,Clear,0,2012-11-29 09:32:00
4:12 AM,25.5,21.9,86,30.06,7.0,Calm,Calm,-,N/A,,Clear,0,2012-11-29 10:12:00
4:32 AM,25.0,21.4,86,30.06,7.0,Calm,Calm,-,N/A,,Clear,0,2012-11-29 10:32:00
4:52 AM,25.7,22.1,86,30.06,10.0,Calm,Calm,-,N/A,,Clear,0,2012-11-29 10:52:00
5:12 AM,24.6,21.2,87,30.07,10.0,Calm,Calm,-,N/A,,Clear,0,2012-11-29 11:12:00
5:32 AM,25.3,21.7,86,30.07,10.0,Calm,Calm,-,N/A,,Clear,0,2012-11-29 11:32:00
5:52 AM,24.6,20.8,86,30.07,10.0,Calm,Calm,-,N/A,,Clear,0,2012-11-29 11:52:00
6:12 AM,25.9,21.7,84,30.07,10.0,Calm,Calm,-,N/A,,Clear,0,2012-11-29 12:12:00
6:32 AM,23.9,20.5,87,30.07,7.0,Calm,Calm,-,N/A,,Clear,0,2012-11-29 12:32:00
6:52 AM,24.4,21.4,88,30.07,10.0,Calm,Calm,-,N/A,,Clear,0,2012-11-29 12:52:00
7:12 AM,23.9,20.7,87,30.07,10.0,Calm,Calm,-,N/A,,Clear,0,2012-11-29 13:12:00
7:32 AM,24.8,21.6,87,30.08,7.0,Calm,Calm,-,N/A,,Clear,0,2012-11-29 13:32:00
7:52 AM,24.6,21.2,87,30.09,7.0,Calm,Calm,-,N/A,,Clear,0,2012-11-29 13:52:00
8:12 AM,25.0,21.7,87,30.09,7.0,Calm,Calm,-,N/A,,Clear,0,2012-11-29 14:12:00
8:32 AM,26.6,23.2,87,30.10,7.0,Calm,Calm,-,N/A,,Clear,0,2012-11-29 14:32:00
8:52 AM,29.3,25.5,86,30.10,7.0,Calm,Calm,-,N/A,,Clear,0,2012-11-29 14:52:00
9:12 AM,31.3,25.0,77,30.09,7.0,Calm,Calm,-,N/A,,Clear,0,2012-11-29 15:12:00
9:32 AM,32.2,25.5,76,30.08,7.0,NE,3.5,-,N/A,,Clear,50,2012-11-29 15:32:00
9:52 AM,33.4,25.0,71,30.08,10.0,East,4.6,-,N/A,,Clear,80,2012-11-29 15:52:00
10:12 AM,33.8,24.8,70,30.09,10.0,NE,4.6,-,N/A,,Clear,50,2012-11-29 16:12:00
10:32 AM,34.7,24.8,67,30.09,10.0,ENE,4.6,-,N/A,,Clear,60,2012-11-29 16:32:00
10:52 AM,35.2,24.8,66,30.09,10.0,NE,3.5,-,N/A,,Clear,50,2012-11-29 16:52:00
11:12 AM,36.5,25.2,64,30.08,10.0,East,4.6,-,N/A,,Clear,80,2012-11-29 17:12:00
11:32 AM,37.6,25.0,60,30.07,10.0,ENE,6.9,-,N/A,,Clear,60,2012-11-29 17:32:00
11:52 AM,37.9,25.3,60,30.07,10.0,East,4.6,-,N/A,,Clear,80,2012-11-29 17:52:00
12:12 PM,39.2,25.5,58,30.07,10.0,NE,6.9,-,N/A,,Clear,50,2012-11-29 18:12:00
12:32 PM,40.1,25.5,56,30.07,10.0,NE,5.8,-,N/A,,Clear,50,2012-11-29 18:32:00
12:52 PM,40.8,25.2,54,30.07,10.0,East,5.8,-,N/A,,Clear,80,2012-11-29 18:52:00
1:12 PM,40.8,24.8,53,30.06,10.0,NE,6.9,-,N/A,,Clear,50,2012-11-29 19:12:00
1:32 PM,40.3,24.8,54,30.06,10.0,ENE,5.8,-,N/A,,Clear,70,2012-11-29 19:32:00
1:52 PM,40.3,24.8,54,30.05,10.0,NE,5.8,-,N/A,,Clear,50,2012-11-29 19:52:00
2:12 PM,40.8,25.2,54,30.05,10.0,ENE,5.8,-,N/A,,Clear,60,2012-11-29 20:12:00
2:32 PM,41.0,24.8,53,30.05,10.0,ENE,6.9,-,N/A,,Clear,60,2012-11-29 20:32:00
2:52 PM,40.6,25.3,54,30.04,10.0,ENE,9.2,-,N/A,,Clear,60,2012-11-29 20:52:00
3:12 PM,40.5,25.5,55,30.04,10.0,NE,8.1,-,N/A,,Clear,50,2012-11-29 21:12:00
3:32 PM,40.1,25.2,55,30.05,10.0,NE,5.8,-,N/A,,Clear,40,2012-11-29 21:32:00
3:52 PM,39.4,25.2,57,30.05,10.0,ENE,5.8,-,N/A,,Clear,60,2012-11-29 21:52:00
4:12 PM,39.2,25.2,57,30.07,10.0,NE,8.1,-,N/A,,Clear,40,2012-11-29 22:12:00
4:32 PM,38.8,25.5,59,30.06,7.0,NNE,5.8,-,N/A,,Clear,30,2012-11-29 22:32:00
4:52 PM,37.9,25.7,61,30.06,10.0,NE,5.8,-,N/A,,Clear,50,2012-11-29 22:52:00
5:12 PM,37.6,25.7,62,30.05,10.0,ENE,5.8,-,N/A,,Clear,60,2012-11-29 23:12:00
5:32 PM,37.0,25.7,64,30.06,10.0,ENE,5.8,-,N/A,,Clear,60,2012-11-29 23:32:00
5:52 PM,36.7,26.1,65,30.08,10.0,NE,4.6,-,N/A,,Clear,50,2012-11-29 23:52:00
6:12 PM,36.3,26.2,67,30.09,10.0,Calm,Calm,-,N/A,,Clear,0,2012-11-30 00:12:00
6:32 PM,36.1,26.1,67,30.09,10.0,NE,4.6,-,N/A,,Clear,40,2012-11-30 00:32:00
6:52 PM,35.8,26.1,68,30.09,10.0,NNE,5.8,-,N/A,,Clear,30,2012-11-30 00:52:00
7:12 PM,35.2,26.6,71,30.10,10.0,NNE,8.1,-,N/A,,Clear,30,2012-11-30 01:12:00
7:32 PM,34.7,26.6,72,30.10,10.0,NE,5.8,17.3,N/A,,Clear,40,2012-11-30 01:32:00
7:52 PM,34.7,26.6,72,30.10,10.0,NNE,6.9,-,N/A,,Clear,20,2012-11-30 01:52:00
8:12 PM,34.2,26.6,74,30.11,10.0,NNE,3.5,-,N/A,,Clear,20,2012-11-30 02:12:00
8:32 PM,33.4,26.4,75,30.11,10.0,NNE,4.6,-,N/A,,Clear,30,2012-11-30 02:32:00
8:52 PM,33.4,26.4,75,30.10,10.0,Calm,Calm,-,N/A,,Clear,0,2012-11-30 02:52:00
9:12 PM,33.4,26.4,75,30.10,10.0,NE,4.6,-,N/A,,Clear,40,2012-11-30 03:12:00
9:32 PM,33.3,26.2,75,30.10,10.0,NE,6.9,-,N/A,,Clear,50,2012-11-30 03:32:00
9:52 PM,33.3,26.2,75,30.09,10.0,NE,6.9,-,N/A,,Clear,40,2012-11-30 03:52:00
10:12 PM,33.3,26.1,75,30.09,10.0,ENE,3.5,-,N/A,,Clear,60,2012-11-30 04:12:00
10:32 PM,33.1,26.1,75,30.10,10.0,NE,3.5,-,N/A,,Clear,40,2012-11-30 04:32:00
10:52 PM,33.1,26.1,75,30.10,10.0,NE,5.8,-,N/A,,Clear,50,2012-11-30 04:52:00
11:12 PM,33.1,26.1,75,30.10,10.0,NE,6.9,-,N/A,,Scattered Clouds,40,2012-11-30 05:12:00
11:32 PM,32.9,26.1,76,30.10,10.0,ENE,4.6,-,N/A,,Scattered Clouds,60,2012-11-30 05:32:00
11:52 PM,32.9,26.1,76,30.10,10.0,ENE,5.8,-,N/A,,Clear,60,2012-11-30 05:52:00